Dublin, Ireland

9:26 AM IST on July 24, 2016 (GMT +0100)
Dublin International

Weather History for EIDW - March, 2013

Change the Weather History Date:

Saturday, March 2, 2013

  Actual Average Record
Temperature  
Mean Temperature 34 °F -  
Max Temperature 44 °F 49 °F 53 °F (1999)
Min Temperature 25 °F 38 °F 17 °F (2001)
Degree Days  
Heating Degree Days 30    
Moisture  
Dew Point 32 °F    
Average Humidity 88    
Maximum Humidity 100    
Minimum Humidity 66    
Precipitation  
Precipitation 0.00 in 0.07 in - ()
Sea Level Pressure  
Sea Level Pressure 30.38 in    
Wind  
Wind Speed 4 mph ()    
Max Wind Speed 9 mph    
Max Gust Speed -    
Visibility 6.6 miles    
Events      
Averages and records for this station are not official NWS values.
T = Trace of Precipitation, MM = Missing Value Source: Averaged Metar Reports

Daily Weather History Graph

Daily Weather History Graph

Search for Another Location

Airport or City:

Trip Planner

Search our weather history database for the weather conditions in past years. The results will help you decide how hot, cold, wet, or windy it might be!

Date:

Astronomy

Mar. 02, 2013 Rise Set
Actual Time 7:10 AM GMT 6:05 PM GMT
Civil Twilight 6:35 AM GMT 6:40 PM GMT
Nautical Twilight 5:55 AM GMT 7:20 PM GMT
Astronomical Twilight 5:14 AM GMT 8:01 PM GMT
Moon No Moon Rise 8:40 AM GMT (3/2)
Length of Visible Light 12h 04m
Length of Day
10h 54m
Waning Gibbous, 76% of the Moon is Illuminated
Mar 2
Waning Gibbous
Mar 4
Last Quarter
Mar 11
New
Mar 19
First Quarter
Mar 27
Full

Hourly Weather History & Observations

Time (GMT) Temp. Windchill Dew Point Humidity Pressure Visibility Wind Dir Wind Speed Gust Speed Precip Events Conditions
12:00 AM 27 °F - 27 °F 99% 30.51 in 16 mi NNW 4.5 mph - -   Scattered Clouds
12:00 AM 28.4 °F - 26.6 °F 93% 30.48 in 6.2 mi NNW 2.3 mph - N/A   Partly Cloudy
12:30 AM 28.4 °F 24.6 °F 26.6 °F 93% 30.48 in 6.2 mi NNW 3.5 mph - N/A   Partly Cloudy
1:00 AM 26.6 °F - 26.6 °F 100% 30.48 in 6.2 mi NNW 2.3 mph - N/A   Partly Cloudy
1:30 AM 26.6 °F - 24.8 °F 93% 30.45 in 6.2 mi NNW 2.3 mph - N/A   Partly Cloudy
2:00 AM 26.6 °F 22.6 °F 26.6 °F 100% 30.45 in 6.2 mi NW 3.5 mph - N/A   Partly Cloudy
2:30 AM 26.6 °F 22.6 °F 26.6 °F 100% 30.45 in 6.2 mi NW 3.5 mph - N/A   Partly Cloudy
3:00 AM 26.6 °F 22.6 °F 26.6 °F 100% 30.45 in 6.2 mi NW 3.5 mph - N/A   Partly Cloudy
3:30 AM 26.6 °F - 26.6 °F 100% 30.42 in 6.2 mi NW 2.3 mph - N/A   Partly Cloudy
4:00 AM 26.6 °F 22.6 °F 26.6 °F 100% 30.42 in 6.2 mi WNW 3.5 mph - N/A   Partly Cloudy
4:30 AM 26.6 °F 22.6 °F 26.6 °F 100% 30.42 in 6.2 mi WNW 3.5 mph - N/A   Partly Cloudy
5:00 AM 26.6 °F 21.2 °F 26.6 °F 100% 30.42 in 6.2 mi WNW 4.6 mph - N/A   Partly Cloudy
5:30 AM 26.6 °F 22.6 °F 26.6 °F 100% 30.42 in 6.2 mi WNW 3.5 mph - N/A   Partly Cloudy
6:00 AM 27 °F - 27 °F 100% 30.45 in 16 mi WNW 6.7 mph - -   Scattered Clouds
6:00 AM 28.4 °F 23.3 °F 26.6 °F 93% 30.42 in 6.2 mi WNW 4.6 mph - N/A   Partly Cloudy
6:30 AM 26.6 °F 19.1 °F 26.6 °F 100% 30.42 in 6.2 mi WNW 6.9 mph - N/A   Partly Cloudy
7:00 AM 26.6 °F 19.1 °F 26.6 °F 100% 30.42 in 6.2 mi WNW 6.9 mph - N/A   Partly Cloudy
7:30 AM 26.6 °F 20.0 °F 26.6 °F 100% 30.42 in 6.2 mi WNW 5.8 mph - N/A   Partly Cloudy
8:00 AM 30.2 °F 24.3 °F 28.4 °F 93% 30.42 in 6.2 mi WNW 5.8 mph - N/A   Mostly Cloudy
8:30 AM 32.0 °F 25.6 °F 30.2 °F 93% 30.39 in 6.2 mi WNW 6.9 mph - N/A   Mostly Cloudy
9:00 AM 32.0 °F 26.4 °F 32.0 °F 100% 30.39 in 6.2 mi WNW 5.8 mph - N/A   Mostly Cloudy
9:30 AM 35.6 °F 28.6 °F 33.8 °F 93% 30.39 in 6.2 mi WNW 9.2 mph - N/A   Mostly Cloudy
10:00 AM 37.4 °F 31.4 °F 35.6 °F 93% 30.39 in 6.2 mi WNW 8.1 mph - N/A   Mostly Cloudy
10:30 AM 39.2 °F 33.0 °F 35.6 °F 87% 30.39 in 6.2 mi WNW 9.2 mph - N/A   Mostly Cloudy
11:00 AM 39.2 °F 33.0 °F 37.4 °F 93% 30.39 in 6.2 mi WNW 9.2 mph - N/A   Mostly Cloudy
11:30 AM 41.0 °F 36.4 °F 37.4 °F 87% 30.39 in 6.2 mi WNW 6.9 mph - N/A   Mostly Cloudy
12:00 PM 43 °F - 36 °F 69% 30.41 in 22 mi NW 6.7 mph - -   Mostly Cloudy
12:00 PM 42.8 °F 38.6 °F 37.4 °F 81% 30.39 in 6.2 mi NW 6.9 mph - N/A   Mostly Cloudy
12:30 PM 44.6 °F 40.7 °F 35.6 °F 71% 30.39 in 6.2 mi WNW 6.9 mph - N/A   Mostly Cloudy
1:00 PM 44.6 °F 40.7 °F 35.6 °F 71% 30.36 in 6.2 mi NW 6.9 mph - N/A   Mostly Cloudy
1:30 PM 44.6 °F 40.7 °F 35.6 °F 71% 30.36 in 6.2 mi NW 6.9 mph - N/A   Mostly Cloudy
2:00 PM 42.8 °F 38.6 °F 35.6 °F 76% 30.36 in 6.2 mi NW 6.9 mph - N/A   Mostly Cloudy
2:30 PM 42.8 °F 39.3 °F 35.6 °F 76% 30.36 in 6.2 mi NNW 5.8 mph - N/A   Mostly Cloudy
3:00 PM 42.8 °F 40.1 °F 35.6 °F 76% 30.36 in 6.2 mi NNW 4.6 mph - N/A   Mostly Cloudy
3:30 PM 42.8 °F - 33.8 °F 70% 30.33 in 6.2 mi Variable 1.2 mph - N/A   Mostly Cloudy
4:00 PM 44.6 °F 43.1 °F 33.8 °F 66% 30.33 in 6.2 mi Variable 3.5 mph - N/A   Mostly Cloudy
4:30 PM 42.8 °F 41.1 °F 33.8 °F 70% 30.33 in 6.2 mi Variable 3.5 mph - N/A   Mostly Cloudy
5:00 PM 42.8 °F 40.1 °F 35.6 °F 76% 30.30 in 6.2 mi ENE 4.6 mph - N/A   Mostly Cloudy
5:30 PM 42.8 °F 41.1 °F 33.8 °F 70% 30.30 in 6.2 mi Variable 3.5 mph - N/A   Mostly Cloudy
6:00 PM 41 °F - 35 °F 73% 30.33 in 25 mi SSE 2.2 mph - -   Mostly Cloudy
6:00 PM 41.0 °F 39.0 °F 35.6 °F 81% 30.30 in 6.2 mi Variable 3.5 mph - N/A   Mostly Cloudy
6:30 PM 41.0 °F 38.0 °F 35.6 °F 81% 30.30 in 6.2 mi WNW 4.6 mph - N/A   Mostly Cloudy
7:00 PM 39.2 °F 35.9 °F 35.6 °F 87% 30.30 in 6.2 mi WNW 4.6 mph - N/A   Mostly Cloudy
7:30 PM 39.2 °F 37.0 °F 35.6 °F 87% 30.30 in 6.2 mi WNW 3.5 mph - N/A   Mostly Cloudy
8:00 PM 39.2 °F 37.0 °F 35.6 °F 87% 30.30 in 6.2 mi Variable 3.5 mph - N/A   Mostly Cloudy
8:30 PM 39.2 °F 35.0 °F 33.8 °F 81% 30.30 in 6.2 mi WSW 5.8 mph - N/A   Mostly Cloudy
9:00 PM 39.2 °F 37.0 °F 35.6 °F 87% 30.30 in 6.2 mi West 3.5 mph - N/A   Mostly Cloudy
9:30 PM 39.2 °F 37.0 °F 35.6 °F 87% 30.30 in 6.2 mi West 3.5 mph - N/A   Mostly Cloudy
10:00 PM 39.2 °F 35.9 °F 35.6 °F 87% 30.30 in 6.2 mi West 4.6 mph - N/A   Mostly Cloudy
10:30 PM 39.2 °F 35.9 °F 35.6 °F 87% 30.30 in 6.2 mi WNW 4.6 mph - N/A   Mostly Cloudy
11:00 PM 39.2 °F 35.9 °F 35.6 °F 87% 30.30 in 6.2 mi NW 4.6 mph - N/A   Overcast
11:30 PM 39.2 °F 35.0 °F 35.6 °F 87% 30.27 in 6.2 mi NW 5.8 mph - N/A   Overcast